Fitchburg, MA

5:44 PM EDT on May 22, 2017 (GMT -0400)
Fitchburg Municipal

Weather History for KFIT - December, 2013

Change the Weather History Date:

Tuesday, December 10, 2013

  Actual Average (KORH) Record (KORH)
Temperature  
Mean Temperature 30 °F -  
Max Temperature 36 °F 37 °F 63 °F (1946)
Min Temperature 24 °F 23 °F -4 °F (1902)
Degree Days  
Heating Degree Days 35    
Moisture  
Dew Point 24 °F    
Average Humidity 74    
Maximum Humidity 89    
Minimum Humidity 58    
Precipitation  
Precipitation 0.04 in - - ()
Sea Level Pressure  
Sea Level Pressure 29.86 in    
Wind  
Wind Speed 7 mph (WNW)    
Max Wind Speed 16 mph    
Max Gust Speed 24 mph    
Visibility 6 miles    
Events Fog , Snow    
Averages and records for this station are not official NWS values.
T = Trace of Precipitation, MM = Missing Value Source: NWS Daily Summary

Daily Weather History Graph

Daily Weather History Graph

Search for Another Location

Airport or City:

Trip Planner

Search our weather history database for the weather conditions in past years. The results will help you decide how hot, cold, wet, or windy it might be!

Date:

Astronomy

Dec. 10, 2013 Rise Set
Actual Time 7:06 AM EST 4:13 PM EST
Civil Twilight 6:34 AM EST 4:45 PM EST
Nautical Twilight 5:58 AM EST 5:21 PM EST
Astronomical Twilight 5:24 AM EST 5:55 PM EST
Moon 12:20 PM EST (12/10) 12:13 AM EST (12/10)
Length of Visible Light 10h 11m
Length of Day
9h 07m
First Quarter, 61% of the Moon is Illuminated
Dec 10
First Quarter
Dec 17
Full
Dec 25
Last Quarter
Jan 1
New
Jan 7
First Quarter

Hourly Weather History & Observations

Time (EST) Temp. Windchill Dew Point Humidity Pressure Visibility Wind Dir Wind Speed Gust Speed Precip Events Conditions
12:52 AM 36.0 °F 32.1 °F 30.9 °F 82% 29.90 in 10.0 mi Variable 4.6 mph - N/A   Clear
1:52 AM 36.0 °F 30.3 °F 30.9 °F 82% 29.91 in 10.0 mi West 6.9 mph - N/A   Clear
2:52 AM 36.0 °F 28.5 °F 28.9 °F 76% 29.91 in 10.0 mi WNW 10.4 mph - N/A   Clear
3:52 AM 36.0 °F 32.1 °F 28.0 °F 73% 29.89 in 10.0 mi West 4.6 mph - N/A   Clear
4:52 AM 36.0 °F 31.1 °F 26.1 °F 67% 29.94 in 10.0 mi WSW 5.8 mph - N/A   Clear
5:52 AM 36.0 °F 31.1 °F 25.0 °F 64% 29.93 in 10.0 mi Variable 5.8 mph - N/A   Clear
6:52 AM 36.0 °F 29.6 °F 25.0 °F 64% 29.91 in 10.0 mi West 8.1 mph - N/A   Mostly Cloudy
7:52 AM 36.0 °F 30.3 °F 25.0 °F 64% 29.92 in 10.0 mi WNW 6.9 mph - N/A   Overcast
8:52 AM 36.0 °F 32.1 °F 24.1 °F 62% 29.93 in 10.0 mi SW 4.6 mph - N/A   Overcast
9:52 AM 36.0 °F 31.1 °F 25.0 °F 64% 29.91 in 10.0 mi WSW 5.8 mph - N/A   Overcast
10:52 AM 36.0 °F 31.1 °F 24.1 °F 62% 29.86 in 10.0 mi WSW 5.8 mph - N/A   Overcast
11:52 AM 36.0 °F 31.1 °F 23.0 °F 59% 29.82 in 10.0 mi WSW 5.8 mph - N/A   Overcast
12:52 PM 35.1 °F 30.1 °F 23.0 °F 61% 29.81 in 10.0 mi West 5.8 mph - N/A   Overcast
1:19 PM 33.1 °F 23.9 °F 25.0 °F 72% 29.80 in 1.8 mi WNW 12.7 mph - 0.01 in Snow Light Snow
1:28 PM 33.1 °F 25.5 °F 27.0 °F 78% 29.79 in 1.2 mi WNW 9.2 mph - 0.01 in Snow Light Snow
1:37 PM 32.0 °F 25.6 °F 27.0 °F 82% 29.79 in 1.0 mi NW 6.9 mph - 0.01 in Snow Light Snow
1:52 PM 32.0 °F 24.8 °F 27.0 °F 82% 29.82 in 1.0 mi WNW 8.1 mph - 0.01 in Snow Light Snow
2:01 PM 32.0 °F 23.0 °F 26.1 °F 79% 29.80 in 1.8 mi WNW 11.5 mph - 0.00 in Snow Light Snow
2:23 PM 30.9 °F 23.5 °F 27.0 °F 85% 29.80 in 0.8 mi WNW 8.1 mph - 0.00 in Snow Light Snow
2:38 PM 30.9 °F 27.5 °F 28.0 °F 89% 29.80 in 0.5 mi NW 3.5 mph - 0.01 in Fog , Snow Snow
2:52 PM 30.9 °F 27.5 °F 28.0 °F 89% 29.81 in 0.5 mi North 3.5 mph - 0.01 in Fog , Snow Snow
3:06 PM 30.9 °F 26.2 °F 28.0 °F 89% 29.80 in 0.5 mi North 4.6 mph - 0.01 in Fog , Snow Snow
3:23 PM 30.0 °F 21.1 °F 26.1 °F 85% 29.81 in 1.0 mi NW 10.4 mph - 0.02 in Snow Light Snow
3:30 PM 30.0 °F 23.2 °F 26.1 °F 85% 29.81 in 1.2 mi NW 6.9 mph - 0.02 in Snow Light Snow
3:39 PM 30.0 °F 21.7 °F 26.1 °F 85% 29.81 in 0.8 mi NNW 9.2 mph - 0.02 in Snow Light Snow
3:48 PM 30.2 °F 23.4 °F 26.6 °F 86% 29.82 in 1.2 mi NW 6.9 mph - 0.02 in Snow Light Snow
3:49 PM 30.0 °F 23.2 °F 26.1 °F 85% 29.84 in 1.2 mi NW 6.9 mph - 0.02 in Snow Light Snow
3:57 PM 30.0 °F - 26.1 °F 85% 29.83 in 0.8 mi Calm Calm - 0.00 in Snow Light Snow
4:07 PM 30.0 °F 24.1 °F 26.1 °F 85% 29.83 in 1.2 mi WNW 5.8 mph - 0.00 in Snow Light Snow
4:14 PM 30.0 °F 23.2 °F 25.0 °F 82% 29.83 in 3.0 mi West 6.9 mph - 0.00 in Snow Light Snow
4:29 PM 30.0 °F 23.2 °F 23.0 °F 75% 29.83 in 9.0 mi WNW 6.9 mph - 0.00 in   Overcast
4:52 PM 30.0 °F 21.7 °F 21.9 °F 72% 29.85 in 10.0 mi West 9.2 mph - 0.00 in   Mostly Cloudy
5:52 PM 28.0 °F 20.8 °F 19.0 °F 69% 29.87 in 10.0 mi WNW 6.9 mph - N/A   Clear
6:52 PM 28.0 °F 18.6 °F 18.0 °F 66% 29.89 in 10.0 mi West 10.4 mph 16.1 mph N/A   Clear
7:52 PM 27.0 °F 15.6 °F 15.1 °F 61% 29.90 in 10.0 mi West 13.8 mph 23.0 mph N/A   Clear
8:52 PM 26.1 °F 13.6 °F 12.9 °F 58% 29.91 in 10.0 mi West 16.1 mph 21.9 mph N/A   Clear
9:52 PM 25.0 °F 13.1 °F 12.0 °F 58% 29.96 in 10.0 mi WNW 13.8 mph 24.2 mph N/A   Clear
10:52 PM 24.1 °F 17.0 °F 12.0 °F 60% 29.98 in 10.0 mi West 5.8 mph - N/A   Clear
11:52 PM 24.1 °F 15.2 °F 12.0 °F 60% 30.01 in 10.0 mi WSW 8.1 mph - N/A   Clear